Location: Oriwa
(40.7500°S, 175.3333°E)
Time: 11:54:19
(UTC+00:00)

IDEFIX/ARIANE 42P - Pass Details

Date: 03 February 2023
Orbit: 783 x 802 km, 98.5° (Epoch: 31 March)

Event Time Altitude Azimuth Distance (km) Brightness Sun altitude
Exits shadow 13:09:20 49° 147° (SSE) 1,030 3.4 -32.1°
Drops below altitude 10° 13:13:31 10° 185° (S) 2,379 5.8 -32.0°
Sets 13:15:53 0° 188° (S) 3,313 6.8 -31.9°
